铱星星座 130星 (IRIDIUM 130)

导读 | 星芒AI

IRIDIUM 130 是 Iridium 卫星通信公司下一代卫星星座计划中的一部分,旨在提供更高效、更可靠的全球卫星通信服务。该卫星采用先进设计,支持语音、数据和互联网服务,特别适用于航空、航海和偏远地区用户。IRIDIUM 130 将与星座中的其他卫星协同工作,提升覆盖范围和传输速度,同时降低功耗和运营成本。该项目是 Iridium Next 计划的延续,致力于推动全球无缝通信的发展。

基本信息
目录编号:
43073
目录名称:
IRIDIUM 130
国际标识:
2017-083D
轨道中心:
EARTH
卫星名称:
铱星星座 130星
卫星全名:
铱星星座 130星 (IRIDIUM 130)
卫星状态:
在轨 (已飞行2912 天)
发射日期:
2017-12-23 UTC
国别 :
美国 (US)
星等 :
--
轨道信息
数据来源 国际轨道数据 AOE轨道数据
星历时间 2025-12-13T00:36:32+0800
17小时前
查看轨道信息
2025-12-09T11:00:00+0800
4天前
查看轨道信息
半长轴 7155.805km 7155.797km
偏心率 0.0002399 0.000228
轨道倾角 86.398° 86.399°
近地点辐角 101.837° 100.207°
升交点赤经 40.210° 41.701°
平近点角 258.309° 214.363°
近地点 775.953km 776.03km
远地点 779.387km 779.294km
周期 100.403分钟 100.403分钟
每日圈数 14.342176 14.342202
详细信息
平衡模式:
三轴稳定
覆盖范围:
全球
运营商:
铱星通信公司
运营商所在国:
美国
制造商(研发单位):
阿莱尼亚宇航公司
制造商所在国:
意大利
使用方式:
暂无
卫星简介
铱星(Iridium)是由共66个运作中的通信卫星组成的卫星通信系统。这个系统原本规划77个通信卫星,所以用原子序数为77的铱元素来命名。铱卫星允许人们使用手持型电子设备进行全球性的语音及数据通讯。该卫星仍在工作。
2D轨道图
3D轨道图
轨道高度分析图
轨道倾角分析图
轨道综合分析图
查看轨道综合分析图